Year,Month,Day,Hour,Minute,Value (Times are PST for temperature in C)
2012,08,17,00,00,16.80
2012,08,17,00,01,16.80
2012,08,17,00,02,16.80
2012,08,17,00,03,16.80
2012,08,17,00,04,16.80
2012,08,17,00,05,16.80
2012,08,17,00,06,16.80
2012,08,17,00,07,16.70
2012,08,17,00,08,16.70
2012,08,17,00,09,16.70
2012,08,17,00,10,16.70
2012,08,17,00,11,16.70
2012,08,17,00,12,16.70
2012,08,17,00,13,16.60
2012,08,17,00,14,16.60
2012,08,17,00,15,16.60
2012,08,17,00,16,16.60
2012,08,17,00,17,16.60
2012,08,17,00,18,16.60
2012,08,17,00,19,16.60
2012,08,17,00,20,16.60
2012,08,17,00,21,16.60
2012,08,17,00,22,16.60
2012,08,17,00,23,16.60
2012,08,17,00,24,16.50
2012,08,17,00,25,16.50
2012,08,17,00,26,16.50
2012,08,17,00,27,16.50
2012,08,17,00,28,16.50
2012,08,17,00,29,16.50
2012,08,17,00,30,16.40
2012,08,17,00,31,16.40
2012,08,17,00,32,16.40
2012,08,17,00,33,16.40
2012,08,17,00,34,16.40
2012,08,17,00,35,16.40
2012,08,17,00,36,16.30
2012,08,17,00,37,16.30
2012,08,17,00,38,16.30
2012,08,17,00,39,16.30
2012,08,17,00,40,16.30
2012,08,17,00,41,16.30
2012,08,17,00,42,16.30
2012,08,17,00,43,16.30
2012,08,17,00,44,16.30
2012,08,17,00,45,16.30
2012,08,17,00,46,16.20
2012,08,17,00,47,16.20
2012,08,17,00,48,16.20
2012,08,17,00,49,16.20
2012,08,17,00,50,16.20
2012,08,17,00,51,16.20
2012,08,17,00,52,16.20
2012,08,17,00,53,16.20
2012,08,17,00,54,16.20
2012,08,17,00,55,16.20
2012,08,17,00,56,16.20
2012,08,17,00,57,16.20
2012,08,17,00,58,16.10
2012,08,17,00,59,16.10
2012,08,17,01,00,16.10
2012,08,17,01,01,16.10
2012,08,17,01,02,16.10
2012,08,17,01,03,16.10
2012,08,17,01,04,16.10
2012,08,17,01,05,16.10
2012,08,17,01,06,16.10
2012,08,17,01,07,16.10
2012,08,17,01,08,16.10
2012,08,17,01,09,16.10
2012,08,17,01,10,16.10
2012,08,17,01,11,16.10
2012,08,17,01,12,16.10
2012,08,17,01,13,16.00
2012,08,17,01,14,16.00
2012,08,17,01,15,16.00
2012,08,17,01,16,16.00
2012,08,17,01,17,16.00
2012,08,17,01,18,16.00
2012,08,17,01,19,16.00
2012,08,17,01,20,16.00
2012,08,17,01,21,16.00
2012,08,17,01,22,15.90
2012,08,17,01,23,15.90
2012,08,17,01,24,15.90
2012,08,17,01,25,15.90
2012,08,17,01,26,15.90
2012,08,17,01,27,15.90
2012,08,17,01,28,15.90
2012,08,17,01,29,15.80
2012,08,17,01,30,15.80
2012,08,17,01,31,15.80
2012,08,17,01,32,15.80
2012,08,17,01,33,15.80
2012,08,17,01,34,15.80
2012,08,17,01,35,15.80
2012,08,17,01,36,15.80
2012,08,17,01,37,15.80
2012,08,17,01,38,15.80
2012,08,17,01,39,15.80
2012,08,17,01,40,15.80
2012,08,17,01,41,15.80
2012,08,17,01,42,15.80
2012,08,17,01,43,15.80
2012,08,17,01,44,15.80
2012,08,17,01,45,15.80
2012,08,17,01,46,15.80
2012,08,17,01,47,15.80
2012,08,17,01,48,15.70
2012,08,17,01,49,15.70
2012,08,17,01,50,15.70
2012,08,17,01,51,15.70
2012,08,17,01,52,15.70
2012,08,17,01,53,15.70
2012,08,17,01,54,15.70
2012,08,17,01,55,15.70
2012,08,17,01,56,15.70
2012,08,17,01,57,15.70
2012,08,17,01,58,15.70
2012,08,17,01,59,15.70
2012,08,17,02,00,15.70
2012,08,17,02,01,15.60
2012,08,17,02,02,15.60
2012,08,17,02,03,15.60
2012,08,17,02,04,15.60
2012,08,17,02,05,15.60
2012,08,17,02,06,15.60
2012,08,17,02,07,15.60
2012,08,17,02,08,15.60
2012,08,17,02,09,15.60
2012,08,17,02,10,15.50
2012,08,17,02,11,15.50
2012,08,17,02,12,15.50
2012,08,17,02,13,15.50
2012,08,17,02,14,15.50
2012,08,17,02,15,15.50
2012,08,17,02,16,15.50
2012,08,17,02,17,15.40
2012,08,17,02,18,15.40
2012,08,17,02,19,15.40
2012,08,17,02,20,15.40
2012,08,17,02,21,15.40
2012,08,17,02,22,15.40
2012,08,17,02,23,15.40
2012,08,17,02,24,15.40
2012,08,17,02,25,15.40
2012,08,17,02,26,15.40
2012,08,17,02,27,15.40
2012,08,17,02,28,15.40
2012,08,17,02,29,15.40
2012,08,17,02,30,15.40
2012,08,17,02,31,15.40
2012,08,17,02,32,15.40
2012,08,17,02,33,15.40
2012,08,17,02,34,15.40
2012,08,17,02,35,15.40
2012,08,17,02,36,15.40
2012,08,17,02,37,15.30
2012,08,17,02,38,15.30
2012,08,17,02,39,15.30
2012,08,17,02,40,15.30
2012,08,17,02,41,15.30
2012,08,17,02,42,15.30
2012,08,17,02,43,15.30
2012,08,17,02,44,15.30
2012,08,17,02,45,15.30
2012,08,17,02,46,15.20
2012,08,17,02,47,15.20
2012,08,17,02,48,15.20
2012,08,17,02,49,15.20
2012,08,17,02,50,15.20
2012,08,17,02,51,15.20
2012,08,17,02,52,15.20
2012,08,17,02,53,15.20
2012,08,17,02,54,15.20
2012,08,17,02,55,15.20
2012,08,17,02,56,15.20
2012,08,17,02,57,15.20
2012,08,17,02,58,15.10
2012,08,17,02,59,15.10
2012,08,17,03,00,15.10
2012,08,17,03,01,15.10
2012,08,17,03,02,15.10
2012,08,17,03,03,15.10
2012,08,17,03,04,15.10
2012,08,17,03,05,15.10
2012,08,17,03,06,15.10
2012,08,17,03,07,15.10
2012,08,17,03,08,15.10
2012,08,17,03,09,15.10
2012,08,17,03,10,15.10
2012,08,17,03,11,15.10
2012,08,17,03,12,15.00
2012,08,17,03,13,15.00
2012,08,17,03,14,15.00
2012,08,17,03,15,15.00
2012,08,17,03,16,15.00
2012,08,17,03,17,15.00
2012,08,17,03,18,15.00
2012,08,17,03,19,15.00
2012,08,17,03,20,15.00
2012,08,17,03,21,15.00
2012,08,17,03,22,15.00
2012,08,17,03,23,15.00
2012,08,17,03,24,15.00
2012,08,17,03,25,15.00
2012,08,17,03,26,15.00
2012,08,17,03,27,15.00
2012,08,17,03,28,15.00
2012,08,17,03,29,15.00
2012,08,17,03,30,15.00
2012,08,17,03,31,15.00
2012,08,17,03,32,15.00
2012,08,17,03,33,15.00
2012,08,17,03,34,15.00
2012,08,17,03,35,15.00
2012,08,17,03,36,15.00
2012,08,17,03,37,15.00
2012,08,17,03,38,15.00
2012,08,17,03,39,15.00
2012,08,17,03,40,14.90
2012,08,17,03,41,14.90
2012,08,17,03,42,14.90
2012,08,17,03,43,14.90
2012,08,17,03,44,14.90
2012,08,17,03,45,14.90
2012,08,17,03,46,14.90
2012,08,17,03,47,14.90
2012,08,17,03,48,14.90
2012,08,17,03,49,14.90
2012,08,17,03,50,14.90
2012,08,17,03,51,14.90
2012,08,17,03,52,14.90
2012,08,17,03,53,14.90
2012,08,17,03,54,14.90
2012,08,17,03,55,14.90
2012,08,17,03,56,14.90
2012,08,17,03,57,14.80
2012,08,17,03,58,14.80
2012,08,17,03,59,14.80
2012,08,17,04,00,14.80
2012,08,17,04,01,14.80
2012,08,17,04,02,14.80
2012,08,17,04,03,14.80
2012,08,17,04,04,14.80
2012,08,17,04,05,14.80
2012,08,17,04,06,14.80
2012,08,17,04,07,14.80
2012,08,17,04,08,14.80
2012,08,17,04,09,14.80
2012,08,17,04,10,14.80
2012,08,17,04,11,14.80
2012,08,17,04,12,14.80
2012,08,17,04,13,14.80
2012,08,17,04,14,14.70
2012,08,17,04,15,14.70
2012,08,17,04,16,14.70
2012,08,17,04,17,14.70
2012,08,17,04,18,14.70
2012,08,17,04,19,14.70
2012,08,17,04,20,14.70
2012,08,17,04,21,14.70
2012,08,17,04,22,14.70
2012,08,17,04,23,14.70
2012,08,17,04,24,14.70
2012,08,17,04,25,14.70
2012,08,17,04,26,14.70
2012,08,17,04,27,14.70
2012,08,17,04,28,14.70
2012,08,17,04,29,14.60
2012,08,17,04,30,14.60
2012,08,17,04,31,14.60
2012,08,17,04,32,14.60
2012,08,17,04,33,14.60
2012,08,17,04,34,14.60
2012,08,17,04,35,14.60
2012,08,17,04,36,14.60
2012,08,17,04,37,14.60
2012,08,17,04,38,14.60
2012,08,17,04,39,14.60
2012,08,17,04,40,14.50
2012,08,17,04,41,14.50
2012,08,17,04,42,14.50
2012,08,17,04,43,14.50
2012,08,17,04,44,14.50
2012,08,17,04,45,14.50
2012,08,17,04,46,14.40
2012,08,17,04,47,14.40
2012,08,17,04,48,14.40
2012,08,17,04,49,14.40
2012,08,17,04,50,14.40
2012,08,17,04,51,14.40
2012,08,17,04,52,14.40
2012,08,17,04,53,14.40
2012,08,17,04,54,14.40
2012,08,17,04,55,14.40
2012,08,17,04,56,14.40
2012,08,17,04,57,14.40
2012,08,17,04,58,14.40
2012,08,17,04,59,14.40
2012,08,17,05,00,14.40
2012,08,17,05,01,14.40
2012,08,17,05,02,14.40
2012,08,17,05,03,14.40
2012,08,17,05,04,14.40
2012,08,17,05,05,14.40
2012,08,17,05,06,14.30
2012,08,17,05,07,14.30
2012,08,17,05,08,14.30
2012,08,17,05,09,14.30
2012,08,17,05,10,14.30
2012,08,17,05,11,14.30
2012,08,17,05,12,14.30
2012,08,17,05,13,14.20
2012,08,17,05,14,14.20
2012,08,17,05,15,14.20
2012,08,17,05,16,14.20
2012,08,17,05,17,14.20
2012,08,17,05,18,14.20
2012,08,17,05,19,14.20
2012,08,17,05,20,14.20
2012,08,17,05,21,14.20
2012,08,17,05,22,14.20
2012,08,17,05,23,14.20
2012,08,17,05,24,14.20
2012,08,17,05,25,14.20
2012,08,17,05,26,14.20
2012,08,17,05,27,14.20
2012,08,17,05,28,14.20
2012,08,17,05,29,14.20
2012,08,17,05,30,14.10
2012,08,17,05,31,14.10
2012,08,17,05,32,14.10
2012,08,17,05,33,14.10
2012,08,17,05,34,14.10
2012,08,17,05,35,14.10
2012,08,17,05,36,14.10
2012,08,17,05,37,14.10
2012,08,17,05,38,14.10
2012,08,17,05,39,14.10
2012,08,17,05,40,14.10
2012,08,17,05,41,14.10
2012,08,17,05,42,14.00
2012,08,17,05,43,14.00
2012,08,17,05,44,14.00
2012,08,17,05,45,14.00
2012,08,17,05,46,14.00
2012,08,17,05,47,14.00
2012,08,17,05,48,14.00
2012,08,17,05,49,14.00
2012,08,17,05,50,13.90
2012,08,17,05,51,13.90
2012,08,17,05,52,13.90
2012,08,17,05,53,13.90
2012,08,17,05,54,13.90
2012,08,17,05,55,13.90
2012,08,17,05,56,13.90
2012,08,17,05,57,13.90
2012,08,17,05,58,13.90
2012,08,17,05,59,13.90
2012,08,17,06,00,13.90
2012,08,17,06,01,13.90
2012,08,17,06,02,13.90
2012,08,17,06,03,13.90
2012,08,17,06,04,13.90
2012,08,17,06,05,13.90
2012,08,17,06,06,13.90
2012,08,17,06,07,13.90
2012,08,17,06,08,13.80
2012,08,17,06,09,13.80
2012,08,17,06,10,13.80
2012,08,17,06,11,13.80
2012,08,17,06,12,13.80
2012,08,17,06,13,13.80
2012,08,17,06,14,13.80
2012,08,17,06,15,13.80
2012,08,17,06,16,13.80
2012,08,17,06,17,13.80
2012,08,17,06,18,13.80
2012,08,17,06,19,13.80
2012,08,17,06,20,13.80
2012,08,17,06,21,13.80
2012,08,17,06,22,13.80
2012,08,17,06,23,13.80
2012,08,17,06,24,13.80
2012,08,17,06,25,13.80
2012,08,17,06,26,13.80
2012,08,17,06,27,13.80
2012,08,17,06,28,13.80
2012,08,17,06,29,13.80
2012,08,17,06,30,13.80
2012,08,17,06,31,13.80
2012,08,17,06,32,13.80
2012,08,17,06,33,13.80
2012,08,17,06,34,13.80
2012,08,17,06,35,13.80
2012,08,17,06,36,13.80
2012,08,17,06,37,13.80
2012,08,17,06,38,13.80
2012,08,17,06,39,13.80
2012,08,17,06,40,13.90
2012,08,17,06,41,13.90
2012,08,17,06,42,13.90
2012,08,17,06,43,13.90
2012,08,17,06,44,13.90
2012,08,17,06,45,13.90
2012,08,17,06,46,13.90
2012,08,17,06,47,13.90
2012,08,17,06,48,13.90
2012,08,17,06,49,13.90
2012,08,17,06,50,13.90
2012,08,17,06,51,13.90
2012,08,17,06,52,13.90
2012,08,17,06,53,13.90
2012,08,17,06,54,13.90
2012,08,17,06,55,13.90
2012,08,17,06,56,13.90
2012,08,17,06,57,13.90
2012,08,17,06,58,13.90
2012,08,17,06,59,13.90
2012,08,17,07,00,13.90
2012,08,17,07,01,13.90
2012,08,17,07,02,13.90
2012,08,17,07,03,13.90
2012,08,17,07,04,13.90
2012,08,17,07,05,13.90
2012,08,17,07,06,13.90
2012,08,17,07,07,13.90
2012,08,17,07,08,13.90
2012,08,17,07,09,13.90
2012,08,17,07,10,13.90
2012,08,17,07,11,13.90
2012,08,17,07,12,13.90
2012,08,17,07,13,13.90
2012,08,17,07,14,14.00
2012,08,17,07,15,14.00
2012,08,17,07,16,14.00
2012,08,17,07,17,14.00
2012,08,17,07,18,14.00
2012,08,17,07,19,14.00
2012,08,17,07,20,14.10
2012,08,17,07,21,14.10
2012,08,17,07,22,14.10
2012,08,17,07,23,14.10
2012,08,17,07,24,14.10
2012,08,17,07,25,14.10
2012,08,17,07,26,14.10
2012,08,17,07,27,14.20
2012,08,17,07,28,14.20
2012,08,17,07,29,14.20
2012,08,17,07,30,14.20
2012,08,17,07,31,14.20
2012,08,17,07,32,14.30
2012,08,17,07,33,14.30
2012,08,17,07,34,14.30
2012,08,17,07,35,14.40
2012,08,17,07,36,14.40
2012,08,17,07,37,14.40
2012,08,17,07,38,14.50
2012,08,17,07,39,14.50
2012,08,17,07,40,14.60
2012,08,17,07,41,14.60
2012,08,17,07,42,14.60
2012,08,17,07,43,14.70
2012,08,17,07,44,14.70
2012,08,17,07,45,14.70
2012,08,17,07,46,14.80
2012,08,17,07,47,14.80
2012,08,17,07,48,14.90
2012,08,17,07,49,15.00
2012,08,17,07,50,15.00
2012,08,17,07,51,15.00
2012,08,17,07,52,15.00
2012,08,17,07,53,15.00
2012,08,17,07,54,15.00
2012,08,17,07,55,15.10
2012,08,17,07,56,15.20
2012,08,17,07,57,15.30
2012,08,17,07,58,15.40
2012,08,17,07,59,15.50
2012,08,17,08,00,15.60
2012,08,17,08,01,15.70
2012,08,17,08,02,15.80
2012,08,17,08,03,15.90
2012,08,17,08,04,16.00
2012,08,17,08,05,16.20
2012,08,17,08,06,16.30
2012,08,17,08,07,16.40
2012,08,17,08,08,16.60
2012,08,17,08,09,16.70
2012,08,17,08,10,16.90
2012,08,17,08,11,17.10
2012,08,17,08,12,17.20
2012,08,17,08,13,17.40
2012,08,17,08,14,17.60
2012,08,17,08,15,17.70
2012,08,17,08,16,17.90
2012,08,17,08,17,18.10
2012,08,17,08,18,18.30
2012,08,17,08,19,18.50
2012,08,17,08,20,18.70
2012,08,17,08,21,18.90
2012,08,17,08,22,19.10
2012,08,17,08,23,19.20
2012,08,17,08,24,19.40
2012,08,17,08,25,19.50
2012,08,17,08,26,19.70
2012,08,17,08,27,19.90
2012,08,17,08,28,20.10
2012,08,17,08,29,20.40
2012,08,17,08,30,20.60
2012,08,17,08,31,20.90
2012,08,17,08,32,21.10
2012,08,17,08,33,21.40
2012,08,17,08,34,21.70
2012,08,17,08,35,21.90
2012,08,17,08,36,22.10
2012,08,17,08,37,22.30
2012,08,17,08,38,22.40
2012,08,17,08,39,22.60
2012,08,17,08,40,22.80
2012,08,17,08,41,23.00
2012,08,17,08,42,23.20
2012,08,17,08,43,23.40
2012,08,17,08,44,23.60
2012,08,17,08,45,23.70
2012,08,17,08,46,23.80
2012,08,17,08,47,24.00
2012,08,17,08,48,24.10
2012,08,17,08,49,24.20
2012,08,17,08,50,24.30
2012,08,17,08,51,24.40
2012,08,17,08,52,24.40
2012,08,17,08,53,24.50
2012,08,17,08,54,24.60
2012,08,17,08,55,24.70
2012,08,17,08,56,24.80
2012,08,17,08,57,24.80
2012,08,17,08,58,24.90
2012,08,17,08,59,25.00
2012,08,17,09,00,25.00
2012,08,17,09,01,25.10
2012,08,17,09,02,25.10
2012,08,17,09,03,25.20
2012,08,17,09,04,25.20
2012,08,17,09,05,25.30
2012,08,17,09,06,25.30
2012,08,17,09,07,25.40
2012,08,17,09,08,25.40
2012,08,17,09,09,25.50
2012,08,17,09,10,25.50
2012,08,17,09,11,25.60
2012,08,17,09,12,25.70
2012,08,17,09,13,25.70
2012,08,17,09,14,25.80
2012,08,17,09,15,25.90
2012,08,17,09,16,25.90
2012,08,17,09,17,25.90
2012,08,17,09,18,25.90
2012,08,17,09,19,26.00
2012,08,17,09,20,26.00
2012,08,17,09,21,26.10
2012,08,17,09,22,26.10
2012,08,17,09,23,26.10
2012,08,17,09,24,26.20
2012,08,17,09,25,26.20
2012,08,17,09,26,26.30
2012,08,17,09,27,26.30
2012,08,17,09,28,26.30
2012,08,17,09,29,26.30
2012,08,17,09,30,26.40
2012,08,17,09,31,26.40
2012,08,17,09,32,26.50
2012,08,17,09,33,26.50
2012,08,17,09,34,26.60
2012,08,17,09,35,26.60
2012,08,17,09,36,26.60
2012,08,17,09,37,26.60
2012,08,17,09,38,26.60
2012,08,17,09,39,26.50
2012,08,17,09,40,26.50
2012,08,17,09,41,26.40
2012,08,17,09,42,26.40
2012,08,17,09,43,26.30
2012,08,17,09,44,26.30
2012,08,17,09,45,26.30
2012,08,17,09,46,26.30
2012,08,17,09,47,26.30
2012,08,17,09,48,26.20
2012,08,17,09,49,26.20
2012,08,17,09,50,26.20
2012,08,17,09,51,26.20
2012,08,17,09,52,26.20
2012,08,17,09,53,26.20
2012,08,17,09,54,26.20
2012,08,17,09,55,26.20
2012,08,17,09,56,26.20
2012,08,17,09,57,26.20
2012,08,17,09,58,26.20
2012,08,17,09,59,26.20
2012,08,17,10,00,26.20
2012,08,17,10,01,26.20
2012,08,17,10,02,26.30
2012,08,17,10,03,26.30
2012,08,17,10,04,26.40
2012,08,17,10,05,26.40
2012,08,17,10,06,26.40
2012,08,17,10,07,26.50
2012,08,17,10,08,26.50
2012,08,17,10,09,26.50
2012,08,17,10,10,26.50
2012,08,17,10,11,26.50
2012,08,17,10,12,26.60
2012,08,17,10,13,26.60
2012,08,17,10,14,26.60
2012,08,17,10,15,26.60
2012,08,17,10,16,26.70
2012,08,17,10,17,26.70
2012,08,17,10,18,26.70
2012,08,17,10,19,26.70
2012,08,17,10,20,26.70
2012,08,17,10,21,26.70
2012,08,17,10,22,26.70
2012,08,17,10,23,26.70
2012,08,17,10,24,26.70
2012,08,17,10,25,26.70
2012,08,17,10,26,26.80
2012,08,17,10,27,26.80
2012,08,17,10,28,26.80
2012,08,17,10,29,26.70
2012,08,17,10,30,26.80
2012,08,17,10,31,26.80
2012,08,17,10,32,26.80
2012,08,17,10,33,26.80
2012,08,17,10,34,26.80
2012,08,17,10,35,26.90
2012,08,17,10,36,26.90
2012,08,17,10,37,27.00
2012,08,17,10,38,27.00
2012,08,17,10,39,27.00
2012,08,17,10,40,27.00
2012,08,17,10,41,27.10
2012,08,17,10,42,27.10
2012,08,17,10,43,27.10
2012,08,17,10,44,27.10
2012,08,17,10,45,27.10
2012,08,17,10,46,27.10
2012,08,17,10,47,27.10
2012,08,17,10,48,27.20
2012,08,17,10,49,27.20
2012,08,17,10,50,27.20
2012,08,17,10,51,27.30
2012,08,17,10,52,27.30
2012,08,17,10,53,27.30
2012,08,17,10,54,27.30
2012,08,17,10,55,27.40
2012,08,17,10,56,27.40
2012,08,17,10,57,27.50
2012,08,17,10,58,27.60
2012,08,17,10,59,27.70
2012,08,17,11,00,27.70
2012,08,17,11,01,27.70
2012,08,17,11,02,27.70
2012,08,17,11,03,27.70
2012,08,17,11,04,27.80
2012,08,17,11,05,27.80
2012,08,17,11,06,27.80
2012,08,17,11,07,27.90
2012,08,17,11,08,28.00
2012,08,17,11,09,28.10
2012,08,17,11,10,28.20
2012,08,17,11,11,28.30
2012,08,17,11,12,28.30
2012,08,17,11,13,28.20
2012,08,17,11,14,28.20
2012,08,17,11,15,28.10
2012,08,17,11,16,28.00
2012,08,17,11,17,28.00
2012,08,17,11,18,28.00
2012,08,17,11,19,28.00
2012,08,17,11,20,28.10
2012,08,17,11,21,28.20
2012,08,17,11,22,28.30
2012,08,17,11,23,28.40
2012,08,17,11,24,28.40
2012,08,17,11,25,28.40
2012,08,17,11,26,28.40
2012,08,17,11,27,28.40
2012,08,17,11,28,28.30
2012,08,17,11,29,28.30
2012,08,17,11,30,28.30
2012,08,17,11,31,28.30
2012,08,17,11,32,28.40
2012,08,17,11,33,28.40
2012,08,17,11,34,28.40
2012,08,17,11,35,28.50
2012,08,17,11,36,28.50
2012,08,17,11,37,28.50
2012,08,17,11,38,28.50
2012,08,17,11,39,28.40
2012,08,17,11,40,28.30
2012,08,17,11,41,28.30
2012,08,17,11,42,28.20
2012,08,17,11,43,28.20
2012,08,17,11,44,28.20
2012,08,17,11,45,28.20
2012,08,17,11,46,28.20
2012,08,17,11,47,28.10
2012,08,17,11,48,28.00
2012,08,17,11,49,27.90
2012,08,17,11,50,27.90
2012,08,17,11,51,28.00
2012,08,17,11,52,28.00
2012,08,17,11,53,28.10
2012,08,17,11,54,28.20
2012,08,17,11,55,28.20
2012,08,17,11,56,28.30
2012,08,17,11,57,28.40
2012,08,17,11,58,28.50
2012,08,17,11,59,28.50
2012,08,17,12,00,28.60
2012,08,17,12,01,28.60
2012,08,17,12,02,28.70
2012,08,17,12,03,28.70
2012,08,17,12,04,28.70
2012,08,17,12,05,28.70
2012,08,17,12,06,28.70
2012,08,17,12,07,28.70
2012,08,17,12,08,28.70
2012,08,17,12,09,28.70
2012,08,17,12,10,28.80
2012,08,17,12,11,28.80
2012,08,17,12,12,28.90
2012,08,17,12,13,29.00
2012,08,17,12,14,29.10
2012,08,17,12,15,29.20
2012,08,17,12,16,29.30
2012,08,17,12,17,29.40
2012,08,17,12,18,29.50
2012,08,17,12,19,29.60
2012,08,17,12,20,29.70
2012,08,17,12,21,29.70
2012,08,17,12,22,29.70
2012,08,17,12,23,29.70
2012,08,17,12,24,29.70
2012,08,17,12,25,29.80
2012,08,17,12,26,29.80
2012,08,17,12,27,29.90
2012,08,17,12,28,30.00
2012,08,17,12,29,30.10
2012,08,17,12,30,30.00
2012,08,17,12,31,30.00
2012,08,17,12,32,30.00
2012,08,17,12,33,30.00
2012,08,17,12,34,30.10
2012,08,17,12,35,30.20
2012,08,17,12,36,30.30
2012,08,17,12,37,30.30
2012,08,17,12,38,30.40
2012,08,17,12,39,30.40
2012,08,17,12,40,30.40
2012,08,17,12,41,30.50
2012,08,17,12,42,30.50
2012,08,17,12,43,30.50
2012,08,17,12,44,30.40
2012,08,17,12,45,30.40
2012,08,17,12,46,30.40
2012,08,17,12,47,30.50
2012,08,17,12,48,30.60
2012,08,17,12,49,30.60
2012,08,17,12,50,30.60
2012,08,17,12,51,30.60
2012,08,17,12,52,30.60
2012,08,17,12,53,30.60
2012,08,17,12,54,30.50
2012,08,17,12,55,30.40
2012,08,17,12,56,30.30
2012,08,17,12,57,30.30
2012,08,17,12,58,30.30
2012,08,17,12,59,30.30
2012,08,17,13,00,30.30
2012,08,17,13,01,30.30
2012,08,17,13,02,30.20
2012,08,17,13,03,30.20
2012,08,17,13,04,30.30
2012,08,17,13,05,30.30
2012,08,17,13,06,30.30
2012,08,17,13,07,30.40
2012,08,17,13,08,30.50
2012,08,17,13,09,30.60
2012,08,17,13,10,30.70
2012,08,17,13,11,30.80
2012,08,17,13,12,30.80
2012,08,17,13,13,30.80
2012,08,17,13,14,30.90
2012,08,17,13,15,31.00
2012,08,17,13,16,31.10
2012,08,17,13,17,31.10
2012,08,17,13,18,31.20
2012,08,17,13,19,31.30
2012,08,17,13,20,31.40
2012,08,17,13,21,31.40
2012,08,17,13,22,31.40
2012,08,17,13,23,31.30
2012,08,17,13,24,31.30
2012,08,17,13,25,31.20
2012,08,17,13,26,31.20
2012,08,17,13,27,31.10
2012,08,17,13,28,30.90
2012,08,17,13,29,30.80
2012,08,17,13,30,30.60
2012,08,17,13,31,30.60
2012,08,17,13,32,30.50
2012,08,17,13,33,30.60
2012,08,17,13,34,30.50
2012,08,17,13,35,30.40
2012,08,17,13,36,30.40
2012,08,17,13,37,30.30
2012,08,17,13,38,30.30
2012,08,17,13,39,30.40
2012,08,17,13,40,30.30
2012,08,17,13,41,30.20
2012,08,17,13,42,30.20
2012,08,17,13,43,30.30
2012,08,17,13,44,30.30
2012,08,17,13,45,30.40
2012,08,17,13,46,30.50
2012,08,17,13,47,30.60
2012,08,17,13,48,30.60
2012,08,17,13,49,30.70
2012,08,17,13,50,30.70
2012,08,17,13,51,30.70
2012,08,17,13,52,30.70
2012,08,17,13,53,30.70
2012,08,17,13,54,30.80
2012,08,17,13,55,30.70
2012,08,17,13,56,30.70
2012,08,17,13,57,30.70
2012,08,17,13,58,30.70
2012,08,17,13,59,30.60
2012,08,17,14,00,30.60
2012,08,17,14,01,30.60
2012,08,17,14,02,30.50
2012,08,17,14,03,30.40
2012,08,17,14,04,30.40
2012,08,17,14,05,30.40
2012,08,17,14,06,30.50
2012,08,17,14,07,30.60
2012,08,17,14,08,30.50
2012,08,17,14,09,30.50
2012,08,17,14,10,30.50
2012,08,17,14,11,30.50
2012,08,17,14,12,30.50
2012,08,17,14,13,30.50
2012,08,17,14,14,30.50
2012,08,17,14,15,30.60
2012,08,17,14,16,30.60
2012,08,17,14,17,30.60
2012,08,17,14,18,30.60
2012,08,17,14,19,30.50
2012,08,17,14,20,30.40
2012,08,17,14,21,30.40
2012,08,17,14,22,30.40
2012,08,17,14,23,30.50
2012,08,17,14,24,30.50
2012,08,17,14,25,30.60
2012,08,17,14,26,30.60
2012,08,17,14,27,30.60
2012,08,17,14,28,30.70
2012,08,17,14,29,30.80
2012,08,17,14,30,30.80
2012,08,17,14,31,30.70
2012,08,17,14,32,30.60
2012,08,17,14,33,30.50
2012,08,17,14,34,30.40
2012,08,17,14,35,30.40
2012,08,17,14,36,30.40
2012,08,17,14,37,30.30
2012,08,17,14,38,30.20
2012,08,17,14,39,30.10
2012,08,17,14,40,30.10
2012,08,17,14,41,30.10
2012,08,17,14,42,30.10
2012,08,17,14,43,30.10
2012,08,17,14,44,30.10
2012,08,17,14,45,30.20
2012,08,17,14,46,30.20
2012,08,17,14,47,30.30
2012,08,17,14,48,30.30
2012,08,17,14,49,30.30
2012,08,17,14,50,30.20
2012,08,17,14,51,30.10
2012,08,17,14,52,30.10
2012,08,17,14,53,30.10
2012,08,17,14,54,30.10
2012,08,17,14,55,30.10
2012,08,17,14,56,30.20
2012,08,17,14,57,30.20
2012,08,17,14,58,30.20
2012,08,17,14,59,30.20
2012,08,17,15,00,30.20
2012,08,17,15,01,30.10
2012,08,17,15,02,30.10
2012,08,17,15,03,30.20
2012,08,17,15,04,30.30
2012,08,17,15,05,30.30
2012,08,17,15,06,30.30
2012,08,17,15,07,30.20
2012,08,17,15,08,30.20
2012,08,17,15,09,30.20
2012,08,17,15,10,30.20
2012,08,17,15,11,30.20
2012,08,17,15,12,30.20
2012,08,17,15,13,30.20
2012,08,17,15,14,30.20
2012,08,17,15,15,30.20
2012,08,17,15,16,30.20
2012,08,17,15,17,30.20
2012,08,17,15,18,30.20
2012,08,17,15,19,30.10
2012,08,17,15,20,30.10
2012,08,17,15,21,30.10
2012,08,17,15,22,30.20
2012,08,17,15,23,30.30
2012,08,17,15,24,30.30
2012,08,17,15,25,30.30
2012,08,17,15,26,30.40
2012,08,17,15,27,30.50
2012,08,17,15,28,30.60
2012,08,17,15,29,30.60
2012,08,17,15,30,30.60
2012,08,17,15,31,30.60
2012,08,17,15,32,30.70
2012,08,17,15,33,30.80
2012,08,17,15,34,30.80
2012,08,17,15,35,30.70
2012,08,17,15,36,30.60
2012,08,17,15,37,30.60
2012,08,17,15,38,30.60
2012,08,17,15,39,30.60
2012,08,17,15,40,30.70
2012,08,17,15,41,30.60
2012,08,17,15,42,30.60
2012,08,17,15,43,30.50
2012,08,17,15,44,30.40
2012,08,17,15,45,30.30
2012,08,17,15,46,30.30
2012,08,17,15,47,30.30
2012,08,17,15,48,30.20
2012,08,17,15,49,30.10
2012,08,17,15,50,30.00
2012,08,17,15,51,29.90
2012,08,17,15,52,29.90
2012,08,17,15,53,29.90
2012,08,17,15,54,30.00
2012,08,17,15,55,30.00
2012,08,17,15,56,29.90
2012,08,17,15,57,29.90
2012,08,17,15,58,29.90
2012,08,17,15,59,29.90
2012,08,17,16,00,29.90
2012,08,17,16,01,29.90
2012,08,17,16,02,29.80
2012,08,17,16,03,29.70
2012,08,17,16,04,29.70
2012,08,17,16,05,29.70
2012,08,17,16,06,29.80
2012,08,17,16,07,29.80
2012,08,17,16,08,29.80
2012,08,17,16,09,29.90
2012,08,17,16,10,29.90
2012,08,17,16,11,29.90
2012,08,17,16,12,30.00
2012,08,17,16,13,30.00
2012,08,17,16,14,30.10
2012,08,17,16,15,30.10
2012,08,17,16,16,30.20
2012,08,17,16,17,30.30
2012,08,17,16,18,30.30
2012,08,17,16,19,30.30
2012,08,17,16,20,30.30
2012,08,17,16,21,30.30
2012,08,17,16,22,30.30
2012,08,17,16,23,30.40
2012,08,17,16,24,30.40
2012,08,17,16,25,30.30
2012,08,17,16,26,30.30
2012,08,17,16,27,30.30
2012,08,17,16,28,30.30
2012,08,17,16,29,30.20
2012,08,17,16,30,30.20
2012,08,17,16,31,30.20
2012,08,17,16,32,30.20
2012,08,17,16,33,30.10
2012,08,17,16,34,30.10
2012,08,17,16,35,30.10
2012,08,17,16,36,30.10
2012,08,17,16,37,30.00
2012,08,17,16,38,29.90
2012,08,17,16,39,29.90
2012,08,17,16,40,29.90
2012,08,17,16,41,29.90
2012,08,17,16,42,29.90
2012,08,17,16,43,29.80
2012,08,17,16,44,29.80
2012,08,17,16,45,29.80
2012,08,17,16,46,29.80
2012,08,17,16,47,29.80
2012,08,17,16,48,29.80
2012,08,17,16,49,29.70
2012,08,17,16,50,29.70
2012,08,17,16,51,29.70
2012,08,17,16,52,29.70
2012,08,17,16,53,29.70
2012,08,17,16,54,29.60
2012,08,17,16,55,29.60
2012,08,17,16,56,29.50
2012,08,17,16,57,29.50
2012,08,17,16,58,29.50
2012,08,17,16,59,29.50
2012,08,17,17,00,29.40
2012,08,17,17,01,29.40
2012,08,17,17,02,29.40
2012,08,17,17,03,29.40
2012,08,17,17,04,29.40
2012,08,17,17,05,29.40
2012,08,17,17,06,29.50
2012,08,17,17,07,29.50
2012,08,17,17,08,29.50
2012,08,17,17,09,29.50
2012,08,17,17,10,29.50
2012,08,17,17,11,29.50
2012,08,17,17,12,29.50
2012,08,17,17,13,29.50
2012,08,17,17,14,29.50
2012,08,17,17,15,29.50
2012,08,17,17,16,29.50
2012,08,17,17,17,29.40
2012,08,17,17,18,29.40
2012,08,17,17,19,29.40